Location: Ethel Rock
(53.4667°N, 4.5667°W)
Time: 01:30:27
(UTC+00:00)

Cosmos 2333 Rocket - Pass Details

Date: 24 October 2020
Orbit: 841 x 861 km, 70.8° (Epoch: 26 November)

Event Time Altitude Azimuth Distance (km) Brightness Sun altitude
Exits shadow 03:14:52 15° 346° (NNW) 2,158 4.4 -33.7°
Maximum altitude 03:14:57 15° 347° (NNW) 2,158 4.4 -33.7°
Drops below altitude 10° 03:18:08 10° 22° (NNE) 2,486 5.2 -33.3°
Sets 03:21:47 0° 45° (NE) 3,419 6.3 -32.8°
